Home > Weather > Overland Park > Past weeks

Flag for USA Past Weather in Overland Park, Kansas, USA — Yesterday and Last 2 Weeks

Now
82 °F

Sunny.


Feels Like: 82 °F
Forecast: 60 / 83 °F
Wind: 6 mph from North

Location: Johnson County Executive Airport

Current Time: May 29, 2016 at 2:27:01 PM

Latest Report: May 29, 2016 at 1:53 PM


Visibility: 10 mi

Pressure: 30.08 "Hg

Humidity: 44%

Dew Point: 58 °F

Location of Overland ParkLocation

Past Weather in Overland Park — Graph

°F

Overland Park Temperature Yesterday

Maximum temperature yesterday: 75 °F (at 5:53 PM)
Minimum temperature yesterday: 57 °F (at 2:53 AM)
Average temperature yesterday: 66 °F

High & Low Weather Summary for the Past Weeks

 TemperatureHumidityPressure
High82 °F (May 26, 1:53 PM)100% (May 16, 3:53 PM)30.28 "Hg (May 16, 3:53 PM)
Low43 °F (May 15, 1:53 AM)32% (May 15, 12:53 PM)29.66 "Hg (May 27, 4:53 AM)
Average62 °F76%30.01 "Hg
* Reported May 14 12:53 PM — May 29 12:53 PM, Overland Park, Weather by CustomWeather, © 2016

Note: Actual official high and low records may vary slightly from our data, if they occured in-between our weather recording intervals... More about our weather records

Advertising

Overland Park Weather History for the Previous 24 Hours

Scroll right to see more
 ConditionsComfort  
Time TempWeatherWind HumidityBarometerVisibility
12:53 PM
Sun, May 29
82 °FSunny.8 mph44%30.09 "Hg10 mi
11:53 AM81 °FSunny.7 mph47%30.09 "Hg10 mi
10:53 AM79 °FSunny.8 mph48%30.09 "Hg10 mi
9:53 AM77 °FSunny.8 mph56%30.09 "Hg10 mi
8:53 AM73 °FSunny.5 mph69%30.08 "Hg10 mi
7:53 AM66 °FSunny.5 mph87%30.07 "Hg10 mi
6:53 AM60 °FClear.3 mph96%30.06 "Hg10 mi
5:53 AM58 °FClear.3 mph97%30.05 "Hg10 mi
4:53 AM59 °FClear.3 mph93%30.03 "Hg10 mi
3:53 AM60 °FClear.No wind93%30.02 "Hg10 mi
2:53 AM59 °FClear.3 mph96%30.01 "Hg10 mi
1:53 AM61 °FClear.3 mph90%30.01 "Hg10 mi
12:53 AM62 °FClear.No wind90%30.01 "Hg10 mi
11:53 PM
Sat, May 28
62 °FClear.No wind90%30.00 "Hg10 mi
10:53 PM67 °FClear.No wind73%29.99 "Hg10 mi
9:53 PM68 °FClear.3 mph73%29.96 "Hg10 mi
8:53 PM70 °FSunny.3 mph68%29.94 "Hg10 mi
7:53 PM73 °FSunny.6 mph59%29.93 "Hg10 mi
6:53 PM74 °FBroken clouds.8 mph57%29.91 "Hg10 mi
5:53 PM75 °FScattered clouds.9 mph54%29.90 "Hg10 mi
4:53 PM73 °FPartly sunny.8 mph57%29.90 "Hg10 mi
3:53 PM74 °FScattered clouds.12 mph56%29.90 "Hg10 mi
2:53 PM74 °FScattered clouds.13 mph57%29.89 "Hg10 mi
Weather by CustomWeather, © 2016

See weather overviewHow to use our weather pages